Regional Weather Roundup
Issued by NWS

Home | Current Version | Previous Version | Graphics & Text | Print | Product List | Glossary Off
Versions: 1 2 3 4 5 6 7 8 9 10 11 12 13 14 15 16 17 18 19 20 21 22 23 24 25 26 27 28 29 30 31 32 33 34 35 36 37 38 39 40 41 42 43 44 45 46 47 48 49 50

000
ASUS43 KIND 010509
RWRIN

WEATHER ROUNDUP FOR INDIANA
NATIONAL WEATHER SERVICE INDIANAPOLIS IN
100 AM EDT THU SEP 01 2016

NOTE: "FAIR" INDICATES FEW OR NO CLOUDS BELOW 12,000 FEET WITH NO
SIGNIFICANT WEATHER AND/OR OBSTRUCTIONS TO VISIBILITY.

* - STATION DOES NOT REPORT WEATHER SUCH AS PRECIPITATION OR FOG.

+ - STATION NOT QUALITY CONTROLLED BY THE NATIONAL WEATHER SERVICE.
    USE DATA WITH CAUTION...ESPECIALLY DEWPOINT AND RELATIVE
    HUMIDITY OBSERVATIONS.

INZ001>003-010>013-019-020-010600-
NORTHWEST INDIANA

CITY           SKY/WX    TMP DP  RH WIND       PRES   REMARKS
GARY /AIRPORT/ CLEAR     72  61  67 NE13      30.10R
KNOX *+        CLEAR     59  45  58 NE5       30.07S
LA PORTE +     CLEAR     66  58  75 NE8       30.10R
MICHIGAN CITY+ CLEAR     64  55  72 CALM      30.10R
MONTICELLO +   PTCLDY    63  57  82 N7        30.05S
RENSSELAER +   CLEAR     61  61 100 NW6       30.08S
VALPARAISO     MOCLDY    65  59  81 N7        30.09R

$$

LMZ046-743>745-010600-
SOUTHERN LAKE MICHIGAN

STATION/POSITION TIME  TEMP    WIND        PRES    WAVE
                       AIR SEA DIR/SP/G            HT
                 (UTC) (F)     (DEG/KT/KT) (MB)    (FT)
BURNS HARBOR     0411   71      40/ 16/ 20 1018.6S
MICHIGAN CITY    0400   68      30/ 14/ 17   N/A
5NW MICH CITY    0500   67 66   60/ 10/ 14   N/A     6

$$

INZ004-005-014>016-021>024-010600-
NORTH CENTRAL INDIANA

CITY           SKY/WX    TMP DP  RH WIND       PRES   REMARKS
GOSHEN         CLEAR     62  58  86 N6        30.07R
LOGANSPORT +   CLEAR     63  61  94 N6        30.06S
PERU/GRISSOM   PTCLDY    65  62  92 N7        30.04S FOG
ROCHESTER +    CLEAR     64  63  94 N3        30.07S
SOUTH BEND     CLEAR     61  57  87 N9        30.09R
WARSAW +       CLEAR     61  61 100 N3        30.07R

$$

INZ006>009-017-018-025>027-010600-
NORTHEAST INDIANA

CITY           SKY/WX    TMP DP  RH WIND       PRES   REMARKS
ANGOLA *+      CLEAR     61  50  67 CALM      30.07R
AUBURN +       CLEAR     63  57  82 N5        30.06S
FORT WAYNE     PTCLDY    68  57  68 NE9       30.05R
HUNTINGTON +   PTCLDY    64  63  96 N3        30.05S

$$

INZ028-029-035-036-043>045-051>053-010600-
WEST CENTRAL INDIANA

CITY           SKY/WX    TMP DP  RH WIND       PRES   REMARKS
CRAWFORDSVL +  CLOUDY    60  60 100 N5        30.05F
GREENCASTLE +  MOCLDY    63  63 100 N7        30.05S
LAFAYETTE      MOCLDY    64  61  90 N7        30.05S
TERRE HAUTE    MOCLDY    65  60  84 N6        30.05S

$$

INZ030>032-037>040-046>048-054>057-064-065-010600-
CENTRAL INDIANA

CITY           SKY/WX    TMP DP  RH WIND       PRES   REMARKS
INDIANAPOLIS   MOCLDY    67  60  78 N9        30.02S
-EAGLE CREEK   MOCLDY    67  60  78 N9        30.03S
KOKOMO *+      CLOUDY    64  61  88 N9        30.05R
MARION +       PTCLDY    65  62  90 N3        30.04S
MT COMFORT *+  CLOUDY    64  61  88 N7        30.03S
SHELBYVILLE    PTCLDY    67  61  81 N9        30.01S
ZIONSVILLE +   CLOUDY    62  60  93 N7        30.05S

$$

INZ033-034-041-042-049-050-058-059-010600-
EAST CENTRAL INDIANA

CITY           SKY/WX    TMP DP  RH WIND       PRES   REMARKS
MUNCIE         PTCLDY    67  65  93 N7        30.03S

$$

INZ060-061-067>069-081>083-085>088-010600-
SOUTHWEST INDIANA

CITY           SKY/WX    TMP DP  RH WIND       PRES   REMARKS
EVANSVILLE     CLOUDY    76  70  82 N12       30.00R
HUNTINGBURG *+ CLOUDY    75  70  83 N6        30.00R
WASHINGTON +   CLOUDY    71  64  78 MISG      30.01S

$$

INZ062-063-066-070>080-084-089>092-010600-
SOUTH CENTRAL AND SOUTHEAST INDIANA

CITY           SKY/WX    TMP DP  RH WIND       PRES   REMARKS
BLOOMINGTON    PTCLDY    67  61  81 N8        30.03R
MADISON *+     CLOUDY    70  68  94 N3        30.00F

$$





USA.gov is the U.S. government's official web portal to all federal, state and local government web resources and services.